SCP
0 0 0 0 0 0 0 0 0 0 0 0 0 0 0 0 0 0 0 0 0 0 0 0 0 0 0 0 0 0 0 0 0 0 0 0 0 0 0 0 0 0 0
0 0 0 0 0 0 0 0 0 0 0 0 0 0 0 0 0 0 0 0 0 0 0 0 0 0 0 0 0 0 0 0 0 0 0 0 0 0 0 0 0 0 0
-0 -0 0 0 0 0 0 0 0 0 0 0 0 0 0 0 0 0 0 0 0 0 0 0 0 0 0 0 0 0 0 0 0 0 0 0 0 0 0 0 0 0 0
0 -0 0 0 0 0 0 0 0 0 0 0 0 0 0 0 0 0 0 0 0 0 0 0 0 0 0 0 0 0 0 0 0 0 0 0 0 0 0 0 0 0 0
-0 -0 -0 0 0 0 0 0 0 0 0 0 0 0 0 0 0 0 0 0 0 0 0 0 0 0 0 0 0 0 0 0 0 0 0 0 0 0 0 0 0 0 0
0 0 0 0 0 0 0 0 0 0 0 0 0 0 0 0 0 0 0 0 0 0 0 0 0 0 0 0 0 0 0 0 0 0 0 0 0 0 0 0 0 0 0
0 0 0 0 0 0 0 0 0 0 0 0 0 0 0 0 0 0 0 0 0 0 0 0 0 0 0 0 0 0 0 0 0 0 0 0 0 0 0 0 0 0 0
0 0 0 0 0 0 0 0 0 0 0 0 0 0 0 0 0 0 0 0 0 0 0 0 0 0 0 0 0 0 0 0 0 0 0 0 0 0 0 0 0 0 0
0 0 0 0 0 0 0 0 0 0 0 0 0 0 0 0 0 0 0 0 0 0 0 0 0 0 0 0 0 0 0 0 0 0 0 0 0 0 0 0 0 0 0
0 0 0 0 0 0 0 0 0 0 0 0 0 0 0 0 0 0 0 0 0 0 0 0 0 0 0 0 0 0 0 0 0 0 0 0 0 0 0 0 0 0 0
0 1 0 -0 0 0 0 0 0 0 0 0 0 0 0 0 0 0 0 0 0 0 0 0 0 0 0 0 0 0 0 0 0 0 0 0 0 0 0 0 0 0 0
0 0 0 -0 0 0 0 0 0 0 0 0 0 0 0 0 0 0 0 0 0 0 0 0 0 0 0 0 0 0 0 0 0 0 0 0 0 0 0 0 0 0 0
0 0 0 0 0 0 0 0 0 0 0 0 0 0 0 0 0 0 0 0 0 0 0 0 0 0 0 0 0 0 0 0 0 0 0 0 0 0 0 0 0 0 0
0 0 0 0 0 0 0 0 0 0 0 0 0 0 0 0 0 0 0 0 0 0 0 0 0 0 0 0 0 0 0 0 0 0 0 0 0 0 0 0 0 0 0
0 0 0 0 0 0 0 0 0 0 0 0 0 0 0 0 0 0 0 0 0 0 0 0 0 0 0 0 0 0 0 0 0 0 0 0 0 0 0 0 0 0 0
0 0 0 0 0 0 0 0 0 0 0 0 0 0 0 0 0 0 0 0 0 0 0 0 0 0 0 0 0 0 0 0 0 0 0 0 0 0 0 0 0 0 0
-0 -0 0 0 0 0 0 0 0 0 0 0 0 0 0 0 0 0 0 0 0 0 0 0 0 0 0 0 0 0 0 0 0 0 0 0 0 0 0 0 0 0 0
0 0 0 0 0 0 0 0 0 0 0 0 0 0 0 0 0 0 0 0 0 0 0 0 0 0 0 0 0 0 0 0 0 0 0 0 0 0 0 0 0 0 0
0 0 0 0 0 0 0 0 0 0 0 0 0 0 0 0 0 0 0 0 0 0 0 0 0 0 0 0 0 0 0 0 0 0 0 0 0 0 0 0 0 0 0
0 0 0 0 0 0 0 0 0 0 0 0 0 0 0 0 0 0 0 0 0 0 0 0 0 0 0 0 0 0 0 0 0 0 0 0 0 0 0 0 0 0 0
0 0 0 0 0 0 0 0 0 0 0 0 0 0 0 0 0 0 0 0 0 0 0 0 0 0 0 0 0 0 0 0 0 0 0 0 0 0 0 0 0 0 0
0 0 0 0 0 0 0 0 0 0 0 0 0 0 0 0 0 0 0 0 0 0 0 0 0 0 0 0 0 0 0 0 0 0 0 0 0 0 0 0 0 0 0
0 0 0 0 0 0 0 0 0 0 0 0 0 0 0 0 0 0 0 0 0 0 0 0 0 0 0 0 0 0 0 0 0 0 0 0 0 0 0 0 0 0 0
0 0 0 0 0 0 0 0 0 0 0 0 0 0 0 0 0 0 0 0 0 0 0 0 0 0 0 0 0 0 0 0 0 0 0 0 0 0 0 0 0 0 0
0 0 0 0 0 0 0 0 0 0 0 0 0 0 0 0 0 0 0 0 0 0 0 0 0 0 0 0 0 0 0 0 0 0 0 0 0 0 0 0 0 0 0
0 0 0 0 0 0 0 0 0 0 0 0 0 0 0 0 0 0 0 0 0 0 0 0 0 0 0 0 0 0 0 0 0 0 0 0 0 0 0 0 0 0 0
Wind_Speed_500mb
56 45 36 27 19 11 1 9 7 5 11 17 17 14 12 4 12 13 17 28 23 30 35 36 29 31 36 40 39 32 30 26 22 14 16 11 2 17 12 20 21 22 26
57 54 46 39 27 14 6 3 5 1 7 12 20 18 21 12 10 10 18 20 21 29 34 41 35 30 30 31 44 38 37 35 29 26 15 10 6 9 12 30 22 25 29
71 66 58 51 37 23 10 6 4 2 5 9 18 19 19 17 11 8 17 17 20 23 30 38 39 28 25 29 37 41 37 33 27 24 22 10 11 38 15 32 28 27 28
76 78 67 61 46 26 17 13 8 4 4 8 13 19 23 20 18 13 12 15 17 16 24 35 37 23 24 23 27 36 39 33 30 21 17 14 16 15 24 39 32 25 21
76 84 75 64 44 31 22 16 15 5 3 4 12 17 22 20 17 8 12 11 9 12 22 32 35 21 19 23 24 24 30 36 30 26 22 18 21 20 26 37 47 29 21
72 82 74 63 48 35 31 25 20 12 3 3 6 9 11 15 19 15 9 13 8 12 20 29 32 22 16 26 25 23 22 27 30 29 24 29 26 27 28 36 41 40 30
78 83 75 75 59 49 39 30 26 18 8 5 3 2 5 10 15 16 13 17 24 19 20 21 29 26 16 15 23 29 19 21 25 26 24 26 22 26 24 29 36 41 33
76 84 80 78 70 53 40 30 31 23 13 8 10 8 8 13 15 12 16 19 18 25 24 27 27 26 23 13 18 23 26 21 21 25 30 24 24 26 25 30 37 37 35
47 70 79 80 76 54 46 37 33 25 18 10 11 10 9 11 14 11 13 13 14 19 23 22 24 23 23 19 19 24 26 28 22 24 27 26 25 25 26 27 25 27 30
28 35 40 62 71 61 50 43 35 26 15 12 11 12 13 13 17 19 17 19 18 20 21 20 23 23 24 24 25 26 25 27 27 30 31 27 30 32 29 30 26 26 29
28 51 39 60 65 73 65 47 40 26 19 13 14 16 14 17 19 23 22 23 23 24 28 27 26 27 27 26 31 34 34 36 37 37 40 41 39 38 37 36 34 30 34
34 45 45 78 60 77 72 51 38 23 14 13 20 21 20 18 21 26 26 26 30 30 31 30 27 26 27 29 32 34 35 37 39 40 44 47 41 44 44 41 42 40 36
32 25 29 69 80 74 62 50 38 21 15 17 24 24 22 20 23 28 29 30 33 33 33 33 32 33 33 34 37 41 47 50 51 49 48 47 47 48 46 45 45 44 41
13 15 15 36 60 52 48 45 43 20 17 23 24 23 20 21 28 28 30 30 29 30 31 33 36 38 41 44 49 52 56 57 58 57 58 58 57 57 52 50 49 43 44
12 19 27 22 43 32 42 44 42 26 20 18 18 21 20 23 26 29 32 33 33 31 34 41 44 47 49 52 56 60 61 64 67 70 69 66 68 65 58 50 50 47 48
21 24 33 30 33 34 44 40 39 26 17 18 19 23 24 23 29 33 36 38 41 42 46 51 54 57 59 60 61 62 68 70 72 87 75 63 61 60 54 50 49 47 50
15 17 10 15 33 41 46 36 28 17 14 15 20 20 16 21 26 31 39 44 49 53 56 58 61 63 66 65 63 63 59 64 67 52 59 69 52 62 51 47 40 47 46
18 20 20 21 35 37 22 16 13 9 10 18 22 23 24 26 29 35 41 45 51 55 57 58 57 62 68 65 58 55 52 55 50 47 49 49 46 46 46 43 41 44 47
18 21 23 28 24 19 16 12 2 8 17 21 24 24 25 31 36 41 44 44 46 53 54 49 40 43 47 43 42 44 47 49 51 47 45 42 37 45 21 27 36 44 35
18 22 25 29 27 25 16 6 3 7 13 21 25 23 25 30 37 40 41 41 44 42 42 44 41 33 31 36 45 39 42 48 55 50 48 42 40 38 27 41 42 43 39
21 20 20 22 18 14 12 8 4 6 12 13 17 22 30 29 33 34 33 34 35 36 36 36 40 33 26 34 36 39 47 52 56 60 58 43 40 35 35 39 42 50 49
26 14 17 20 16 13 9 12 6 11 18 21 27 32 29 29 33 34 30 27 33 40 43 39 34 31 31 34 40 46 48 50 52 54 52 46 42 40 35 34 36 37 39
26 29 27 27 24 18 15 16 28 27 20 25 29 29 32 32 26 27 31 36 43 40 38 35 35 38 40 45 50 54 50 45 43 41 41 40 41 36 33 32 31 30 32
41 37 33 28 21 15 14 18 22 25 27 26 27 29 27 24 29 30 36 38 34 31 35 38 41 44 48 52 58 60 60 58 47 44 41 37 35 30 31 35 31 29 31
38 38 32 24 14 7 7 9 16 20 22 22 28 25 26 30 33 36 35 32 35 29 34 38 39 44 49 51 54 66 65 62 57 51 41 42 45 45 42 39 38 33 32
41 32 20 3 9 8 10 12 15 15 15 23 27 30 29 35 32 29 29 30 31 26 39 37 36 36 43 48 53 57 58 61 58 56 57 54 54 52 48 49 49 48 44
Wind_Direction_500mb
211 214 224 227 230 226 87 23 35 180 191 187 191 189 187 269 260 304 346 356 12 17 18 14 11 10 11 22 26 28 25 24 36 111 129 147 71 26 26 16 352 354 348
204 208 217 223 231 238 227 1 356 219 194 186 183 172 192 226 257 311 334 348 1 3 9 9 2 9 15 28 30 34 35 37 31 33 37 6 263 344 33 12 356 344 342
208 208 212 222 224 225 226 252 311 283 228 184 181 186 186 207 240 284 321 328 327 345 357 2 358 7 18 26 31 30 32 36 42 41 34 16 354 339 315 356 358 341 336
217 214 213 221 221 224 227 245 272 294 251 200 202 199 208 206 225 256 269 294 301 322 348 355 354 2 22 32 32 33 36 30 32 43 26 5 350 350 325 335 357 5 344
219 213 216 221 219 223 233 239 263 280 297 246 211 216 232 236 240 252 252 280 319 304 341 351 350 355 11 16 18 21 25 23 21 13 13 353 324 331 335 331 342 355 1
218 215 216 217 214 221 231 241 258 264 298 278 235 226 234 238 227 231 247 296 292 288 333 344 348 352 3 4 3 6 18 16 14 17 14 6 358 338 329 327 331 339 354
218 214 211 211 213 213 222 235 241 253 278 321 320 237 240 221 215 250 250 282 281 290 314 330 340 352 346 352 357 3 1 5 355 1 356 2 356 347 342 332 334 327 341
221 215 213 214 213 211 217 236 238 239 256 304 331 351 324 274 282 287 292 285 273 288 301 313 320 329 345 329 326 339 346 343 339 340 333 339 348 339 327 322 328 323 325
208 213 216 217 213 206 223 232 230 235 248 286 328 331 329 293 321 305 312 290 302 324 310 301 312 310 323 334 320 318 329 335 333 330 322 324 331 327 325 321 322 319 308
214 206 216 229 216 224 229 228 221 238 251 279 311 323 337 328 332 316 320 316 311 311 313 298 292 307 305 299 303 307 311 312 317 315 318 319 315 306 302 309 314 296 302
179 185 190 232 234 230 235 227 222 231 246 274 284 292 334 346 333 330 323 318 314 312 316 307 299 297 302 302 300 296 296 294 295 297 303 306 313 307 300 291 294 297 290
163 177 225 229 238 231 238 230 228 238 255 303 279 293 318 322 316 319 326 323 323 318 316 307 299 298 297 295 294 293 295 295 296 296 289 295 310 303 297 287 280 282 288
191 214 211 217 232 226 230 235 234 237 284 285 275 288 308 310 309 319 329 324 322 315 310 304 306 304 301 298 297 295 293 294 292 290 289 294 296 299 296 284 277 275 279
359 230 217 207 203 219 231 235 234 242 284 268 262 277 289 300 316 320 322 325 320 318 318 314 314 312 310 309 308 304 299 295 292 289 289 290 291 291 294 284 270 269 269
289 284 249 258 226 236 228 233 227 245 284 257 275 285 286 300 308 313 325 326 322 320 320 318 320 320 319 317 317 313 308 302 296 292 287 286 288 293 290 283 270 266 268
334 315 287 262 219 229 224 227 226 250 272 266 308 299 285 293 297 307 314 316 322 323 323 322 323 325 326 326 322 319 315 305 307 314 296 295 291 291 286 280 273 269 263
40 42 60 208 228 214 220 228 230 262 273 316 338 346 320 301 303 311 310 311 319 324 324 324 327 326 327 324 324 333 329 324 323 318 293 294 300 302 278 269 268 269 268
82 83 102 143 182 186 211 222 240 268 326 329 338 337 334 327 318 316 315 316 321 323 320 318 320 314 311 317 329 336 337 337 344 339 332 319 299 302 290 262 265 273 272
115 107 123 145 159 162 170 173 197 332 325 327 328 332 329 325 323 323 324 321 318 321 330 333 339 337 333 341 337 335 345 348 352 350 344 343 313 322 301 267 278 290 280
119 127 129 135 146 142 141 121 38 324 333 337 334 332 333 330 323 318 323 341 345 351 359 351 350 347 350 352 348 344 350 349 347 349 350 345 334 325 288 283 280 287 288
146 130 138 145 152 146 132 96 296 314 333 332 311 321 333 328 330 348 359 0 359 356 3 13 5 8 11 358 354 352 346 341 342 340 333 333 336 325 311 301 291 273 283
161 159 142 144 138 135 135 48 268 317 304 312 329 335 346 356 356 357 7 9 22 17 13 13 21 26 17 10 3 354 346 342 340 338 339 332 330 330 331 325 310 300 293
184 162 154 153 150 172 206 276 345 341 333 328 331 342 352 5 36 31 31 22 11 11 16 25 36 29 14 5 359 355 356 347 340 337 338 338 335 335 334 335 324 302 299
173 169 165 163 165 199 244 302 327 334 335 340 351 4 37 49 33 33 16 12 29 37 39 32 27 19 14 12 5 4 358 358 351 347 346 345 346 349 346 349 348 347 340
172 167 165 166 176 237 304 355 345 338 337 3 21 56 35 36 27 24 40 32 37 37 34 33 30 25 16 14 7 6 5 4 2 1 357 359 359 355 351 344 344 346 336
147 144 149 149 105 66 24 359 356 355 16 45 55 37 43 25 39 45 53 32 34 38 30 33 21 13 8 1 1 360 3 4 3 6 7 4 2 359 357 358 350 343 339
Wind_Speed_850mb
56 45 36 27 19 11 1 9 7 5 11 17 17 14 12 4 12 13 17 28 23 30 35 36 29 31 36 40 39 32 30 26 22 14 16 11 2 17 12 20 21 22 26
57 54 46 39 27 14 6 3 5 1 7 12 20 18 21 12 10 10 18 20 21 29 34 41 35 30 30 31 44 38 37 35 29 26 15 10 6 9 12 30 22 25 29
71 66 58 51 37 23 10 6 4 2 5 9 18 19 19 17 11 8 17 17 20 23 30 38 39 28 25 29 37 41 37 33 27 24 22 10 11 38 15 32 28 27 28
76 78 67 61 46 26 17 13 8 4 4 8 13 19 23 20 18 13 12 15 17 16 24 35 37 23 24 23 27 36 39 33 30 21 17 14 16 15 24 39 32 25 21
76 84 75 64 44 31 22 16 15 5 3 4 12 17 22 20 17 8 12 11 9 12 22 32 35 21 19 23 24 24 30 36 30 26 22 18 21 20 26 37 47 29 21
72 82 74 63 48 35 31 25 20 12 3 3 6 9 11 15 19 15 9 13 8 12 20 29 32 22 16 26 25 23 22 27 30 29 24 29 26 27 28 36 41 40 30
78 83 75 75 59 49 39 30 26 18 8 5 3 2 5 10 15 16 13 17 24 19 20 21 29 26 16 15 23 29 19 21 25 26 24 26 22 26 24 29 36 41 33
76 84 80 78 70 53 40 30 31 23 13 8 10 8 8 13 15 12 16 19 18 25 24 27 27 26 23 13 18 23 26 21 21 25 30 24 24 26 25 30 37 37 35
47 70 79 80 76 54 46 37 33 25 18 10 11 10 9 11 14 11 13 13 14 19 23 22 24 23 23 19 19 24 26 28 22 24 27 26 25 25 26 27 25 27 30
28 35 40 62 71 61 50 43 35 26 15 12 11 12 13 13 17 19 17 19 18 20 21 20 23 23 24 24 25 26 25 27 27 30 31 27 30 32 29 30 26 26 29
28 51 39 60 65 73 65 47 40 26 19 13 14 16 14 17 19 23 22 23 23 24 28 27 26 27 27 26 31 34 34 36 37 37 40 41 39 38 37 36 34 30 34
34 45 45 78 60 77 72 51 38 23 14 13 20 21 20 18 21 26 26 26 30 30 31 30 27 26 27 29 32 34 35 37 39 40 44 47 41 44 44 41 42 40 36
32 25 29 69 80 74 62 50 38 21 15 17 24 24 22 20 23 28 29 30 33 33 33 33 32 33 33 34 37 41 47 50 51 49 48 47 47 48 46 45 45 44 41
13 15 15 36 60 52 48 45 43 20 17 23 24 23 20 21 28 28 30 30 29 30 31 33 36 38 41 44 49 52 56 57 58 57 58 58 57 57 52 50 49 43 44
12 19 27 22 43 32 42 44 42 26 20 18 18 21 20 23 26 29 32 33 33 31 34 41 44 47 49 52 56 60 61 64 67 70 69 66 68 65 58 50 50 47 48
21 24 33 30 33 34 44 40 39 26 17 18 19 23 24 23 29 33 36 38 41 42 46 51 54 57 59 60 61 62 68 70 72 87 75 63 61 60 54 50 49 47 50
15 17 10 15 33 41 46 36 28 17 14 15 20 20 16 21 26 31 39 44 49 53 56 58 61 63 66 65 63 63 59 64 67 52 59 69 52 62 51 47 40 47 46
18 20 20 21 35 37 22 16 13 9 10 18 22 23 24 26 29 35 41 45 51 55 57 58 57 62 68 65 58 55 52 55 50 47 49 49 46 46 46 43 41 44 47
18 21 23 28 24 19 16 12 2 8 17 21 24 24 25 31 36 41 44 44 46 53 54 49 40 43 47 43 42 44 47 49 51 47 45 42 37 45 21 27 36 44 35
18 22 25 29 27 25 16 6 3 7 13 21 25 23 25 30 37 40 41 41 44 42 42 44 41 33 31 36 45 39 42 48 55 50 48 42 40 38 27 41 42 43 39
21 20 20 22 18 14 12 8 4 6 12 13 17 22 30 29 33 34 33 34 35 36 36 36 40 33 26 34 36 39 47 52 56 60 58 43 40 35 35 39 42 50 49
26 14 17 20 16 13 9 12 6 11 18 21 27 32 29 29 33 34 30 27 33 40 43 39 34 31 31 34 40 46 48 50 52 54 52 46 42 40 35 34 36 37 39
26 29 27 27 24 18 15 16 28 27 20 25 29 29 32 32 26 27 31 36 43 40 38 35 35 38 40 45 50 54 50 45 43 41 41 40 41 36 33 32 31 30 32
41 37 33 28 21 15 14 18 22 25 27 26 27 29 27 24 29 30 36 38 34 31 35 38 41 44 48 52 58 60 60 58 47 44 41 37 35 30 31 35 31 29 31
38 38 32 24 14 7 7 9 16 20 22 22 28 25 26 30 33 36 35 32 35 29 34 38 39 44 49 51 54 66 65 62 57 51 41 42 45 45 42 39 38 33 32
41 32 20 3 9 8 10 12 15 15 15 23 27 30 29 35 32 29 29 30 31 26 39 37 36 36 43 48 53 57 58 61 58 56 57 54 54 52 48 49 49 48 44
Wind_Direction_850mb
211 214 224 227 230 226 87 23 35 180 191 187 191 189 187 269 260 304 346 356 12 17 18 14 11 10 11 22 26 28 25 24 36 111 129 147 71 26 26 16 352 354 348
204 208 217 223 231 238 227 1 356 219 194 186 183 172 192 226 257 311 334 348 1 3 9 9 2 9 15 28 30 34 35 37 31 33 37 6 263 344 33 12 356 344 342
208 208 212 222 224 225 226 252 311 283 228 184 181 186 186 207 240 284 321 328 327 345 357 2 358 7 18 26 31 30 32 36 42 41 34 16 354 339 315 356 358 341 336
217 214 213 221 221 224 227 245 272 294 251 200 202 199 208 206 225 256 269 294 301 322 348 355 354 2 22 32 32 33 36 30 32 43 26 5 350 350 325 335 357 5 344
219 213 216 221 219 223 233 239 263 280 297 246 211 216 232 236 240 252 252 280 319 304 341 351 350 355 11 16 18 21 25 23 21 13 13 353 324 331 335 331 342 355 1
218 215 216 217 214 221 231 241 258 264 298 278 235 226 234 238 227 231 247 296 292 288 333 344 348 352 3 4 3 6 18 16 14 17 14 6 358 338 329 327 331 339 354
218 214 211 211 213 213 222 235 241 253 278 321 320 237 240 221 215 250 250 282 281 290 314 330 340 352 346 352 357 3 1 5 355 1 356 2 356 347 342 332 334 327 341
221 215 213 214 213 211 217 236 238 239 256 304 331 351 324 274 282 287 292 285 273 288 301 313 320 329 345 329 326 339 346 343 339 340 333 339 348 339 327 322 328 323 325
208 213 216 217 213 206 223 232 230 235 248 286 328 331 329 293 321 305 312 290 302 324 310 301 312 310 323 334 320 318 329 335 333 330 322 324 331 327 325 321 322 319 308
214 206 216 229 216 224 229 228 221 238 251 279 311 323 337 328 332 316 320 316 311 311 313 298 292 307 305 299 303 307 311 312 317 315 318 319 315 306 302 309 314 296 302
179 185 190 232 234 230 235 227 222 231 246 274 284 292 334 346 333 330 323 318 314 312 316 307 299 297 302 302 300 296 296 294 295 297 303 306 313 307 300 291 294 297 290
163 177 225 229 238 231 238 230 228 238 255 303 279 293 318 322 316 319 326 323 323 318 316 307 299 298 297 295 294 293 295 295 296 296 289 295 310 303 297 287 280 282 288
191 214 211 217 232 226 230 235 234 237 284 285 275 288 308 310 309 319 329 324 322 315 310 304 306 304 301 298 297 295 293 294 292 290 289 294 296 299 296 284 277 275 279
359 230 217 207 203 219 231 235 234 242 284 268 262 277 289 300 316 320 322 325 320 318 318 314 314 312 310 309 308 304 299 295 292 289 289 290 291 291 294 284 270 269 269
289 284 249 258 226 236 228 233 227 245 284 257 275 285 286 300 308 313 325 326 322 320 320 318 320 320 319 317 317 313 308 302 296 292 287 286 288 293 290 283 270 266 268
334 315 287 262 219 229 224 227 226 250 272 266 308 299 285 293 297 307 314 316 322 323 323 322 323 325 326 326 322 319 315 305 307 314 296 295 291 291 286 280 273 269 263
40 42 60 208 228 214 220 228 230 262 273 316 338 346 320 301 303 311 310 311 319 324 324 324 327 326 327 324 324 333 329 324 323 318 293 294 300 302 278 269 268 269 268
82 83 102 143 182 186 211 222 240 268 326 329 338 337 334 327 318 316 315 316 321 323 320 318 320 314 311 317 329 336 337 337 344 339 332 319 299 302 290 262 265 273 272
115 107 123 145 159 162 170 173 197 332 325 327 328 332 329 325 323 323 324 321 318 321 330 333 339 337 333 341 337 335 345 348 352 350 344 343 313 322 301 267 278 290 280
119 127 129 135 146 142 141 121 38 324 333 337 334 332 333 330 323 318 323 341 345 351 359 351 350 347 350 352 348 344 350 349 347 349 350 345 334 325 288 283 280 287 288
146 130 138 145 152 146 132 96 296 314 333 332 311 321 333 328 330 348 359 0 359 356 3 13 5 8 11 358 354 352 346 341 342 340 333 333 336 325 311 301 291 273 283
161 159 142 144 138 135 135 48 268 317 304 312 329 335 346 356 356 357 7 9 22 17 13 13 21 26 17 10 3 354 346 342 340 338 339 332 330 330 331 325 310 300 293
184 162 154 153 150 172 206 276 345 341 333 328 331 342 352 5 36 31 31 22 11 11 16 25 36 29 14 5 359 355 356 347 340 337 338 338 335 335 334 335 324 302 299
173 169 165 163 165 199 244 302 327 334 335 340 351 4 37 49 33 33 16 12 29 37 39 32 27 19 14 12 5 4 358 358 351 347 346 345 346 349 346 349 348 347 340
172 167 165 166 176 237 304 355 345 338 337 3 21 56 35 36 27 24 40 32 37 37 34 33 30 25 16 14 7 6 5 4 2 1 357 359 359 355 351 344 344 346 336
147 144 149 149 105 66 24 359 356 355 16 45 55 37 43 25 39 45 53 32 34 38 30 33 21 13 8 1 1 360 3 4 3 6 7 4 2 359 357 358 350 343 339